Zurück zum Katalog

STARLINK-32241

AktivKommunikationVLEO
NORAD 60437·PAYLOAD·🇺🇸 United States

Gestartet Aug 12, 2024 von Cape Canaveral Space Force Station

Loading…

Nächste Überflüge (nächste 24 Stunden)

TLE

AktuellSource: CelesTrak SupGP

Epoche: Sep 14, 2026, 22:26 UTC

1 60437C 24144N   26257.93520833  .00039219  00000+0  11590-2 0  2578
2 60437  53.1592  54.0465 0001217  82.5168 173.3257 15.34364588    18

Verfolge STARLINK-32241 in Echtzeit mit AllMySat

Download on the App Store